LANDSAT 9

Last updated on Sun Jun 21 2026 00:02:52 GMT+0000 (Coordinated Universal Time)

1 49260U 21088A 26171.42401958 .00000235 00000+0 62312-4 0 9997 2 49260 98.2280 241.5622 0001329 85.1905 274.9445 14.57098947251475
UTC large
Height (km)
Speed (km/s)
/
Latitude / Longitude
Inclination (degrees)
Orbital Period (minutes)
Azimuth
Elevation
Range (km)
Doppler Factor

Next 0 passes for location: London (51.5072 / 0.1276)

No passes found over London.
LANDSAT 9